Location: Clyde
(45.1830°S, 169.3170°E)
Time: 14:35:59
(UTC+13:00)

Cosmos 2263 Rocket - Pass Details

Date: 24 January 2019
Orbit: 824 x 848 km, 71.0° (Epoch: 19 February)

Event Time Altitude Azimuth Distance (km) Brightness Sun altitude
Rises 23:18:38 0° 215° (SW) 3,413 7.2 -16.5°
Reaches altitude 10° 23:21:21 10° 225° (SW) 2,475 5.9 -16.8°
Maximum altitude 23:26:13 30° 284° (WNW) 1,471 3.7 -17.3°
Enters shadow 23:30:46 11° 341° (NNW) 2,364 4.2 -17.8°
